Weather History for KBAD - November, 2013

Change the Weather History Date:

Friday, November 22, 2013

  Actual Average Record
Temperature  
Mean Temperature 57 °F -  
Max Temperature 68 °F 62 °F 80 °F (2003)
Min Temperature 46 °F 43 °F 28 °F (2000)
Degree Days  
Heating Degree Days 8    
Growing Degree Days 7 (Base 50)    
Moisture  
Dew Point 57 °F    
Average Humidity 100    
Maximum Humidity 100    
Minimum Humidity 94    
Precipitation  
Precipitation 1.91 in - - ()
Sea Level Pressure  
Sea Level Pressure 30.23 in    
Wind  
Wind Speed 9 mph (North)    
Max Wind Speed 17 mph    
Max Gust Speed 20 mph    
Visibility 6 miles    
Events Rain , Thunderstorm    
Averages and records for this station are not official NWS values.
T = Trace of Precipitation, MM = Missing Value Source: NWS Daily Summary

Daily Weather History Graph

Daily Weather History Graph

Search for Another Location

Airport or City:

Trip Planner

Search our weather history database for the weather conditions in past years. The results will help you decide how hot, cold, wet, or windy it might be!

Date:

Astronomy

Nov. 22, 2013 Rise Set
Actual Time 6:50 AM CST 5:10 PM CST
Civil Twilight 6:24 AM CST 5:37 PM CST
Nautical Twilight 5:54 AM CST 6:07 PM CST
Astronomical Twilight 5:24 AM CST 6:36 PM CST
Moon 9:39 PM CST (11/22) 10:38 AM CST (11/22)
Length of Visible Light 11h 12m
Length of Day
10h 19m
Waning Gibbous, 78% of the Moon is Illuminated
Nov 22
Waning Gibbous
Nov 25
Last Quarter
Dec 2
New
Dec 9
First Quarter
Dec 17
Full

Hourly Weather History & Observations

Time (CST) Temp. Windchill Dew Point Humidity Pressure Visibility Wind Dir Wind Speed Gust Speed Precip Events Conditions
12:25 AM 68.0 °F - 68.0 °F 100% 30.08 in 8.0 mi SSE 13.8 mph - N/A   Overcast
12:58 AM 67.6 °F - 67.6 °F 100% 30.09 in 8.0 mi SSE 12.7 mph - N/A   Overcast
1:58 AM 67.6 °F - 67.6 °F 100% 30.11 in 6.0 mi SSE 8.1 mph - N/A   Overcast
2:18 AM 68.0 °F - 68.0 °F 100% 30.09 in 6.0 mi SSE 9.2 mph - N/A   Overcast
2:28 AM 68.0 °F - 68.0 °F 100% 30.10 in 6.0 mi SSE 8.1 mph - N/A   Mostly Cloudy
2:38 AM 68.0 °F - 68.0 °F 100% 30.10 in 6.0 mi SSE 8.1 mph - N/A   Mostly Cloudy
2:50 AM 68.0 °F - 68.0 °F 100% 30.10 in 6.0 mi SSE 9.2 mph - N/A   Mostly Cloudy
2:58 AM 67.8 °F - 67.8 °F 100% 30.12 in 6.0 mi South 8.1 mph - N/A   Mostly Cloudy
3:08 AM 68.0 °F - 68.0 °F 100% 30.11 in 5.0 mi South 6.9 mph - N/A   Overcast
3:17 AM 68.0 °F - 68.0 °F 100% 30.15 in 4.0 mi WNW 17.3 mph - N/A Rain , Thunderstorm Light Rain
3:22 AM 68.0 °F - 68.0 °F 100% 30.14 in 1.5 mi SW 5.8 mph 19.6 mph N/A Rain , Thunderstorm Heavy Thunderstorms and Rain
3:32 AM 66.2 °F - 64.4 °F 94% 30.12 in 1.5 mi SSW 10.4 mph - N/A Rain , Thunderstorm Thunderstorms and Rain
3:42 AM 64.4 °F - 64.4 °F 100% 30.11 in 4.0 mi South 10.4 mph - N/A Rain , Thunderstorm Thunderstorms and Rain
3:52 AM 64.4 °F - 64.4 °F 100% 30.12 in 5.0 mi South 9.2 mph - N/A Rain , Thunderstorm Light Thunderstorms and Rain
3:58 AM 64.9 °F - 64.9 °F 100% 30.14 in 6.0 mi South 10.4 mph - 0.53 in Rain , Thunderstorm Light Thunderstorms and Rain
4:08 AM 64.4 °F - 64.4 °F 100% 30.12 in 5.0 mi SW 8.1 mph - N/A Rain , Thunderstorm Light Thunderstorms and Rain
4:33 AM 64.4 °F - 64.4 °F 100% 30.13 in 4.0 mi South 8.1 mph - N/A Rain , Thunderstorm Rain
4:43 AM 64.4 °F - 64.4 °F 100% 30.14 in 5.0 mi South 4.6 mph - N/A Rain , Thunderstorm Light Rain
4:53 AM 64.4 °F - 64.4 °F 100% 30.15 in 9.0 mi South 6.9 mph - N/A Rain , Thunderstorm Light Rain
4:58 AM 64.4 °F - 64.4 °F 100% 30.16 in 9.0 mi South 5.8 mph - 0.34 in Rain , Thunderstorm Light Rain
5:18 AM 64.4 °F - 64.4 °F 100% 30.15 in 6.0 mi SW 5.8 mph - N/A Rain , Thunderstorm Light Rain
5:25 AM 64.4 °F - 64.4 °F 100% 30.16 in 6.0 mi SW 4.6 mph - N/A Rain , Thunderstorm Light Thunderstorms and Rain
5:32 AM 64.4 °F - 64.4 °F 100% 30.16 in 6.0 mi South 3.5 mph - N/A Rain , Thunderstorm Light Rain
5:47 AM 64.4 °F - 64.4 °F 100% 30.16 in 3.0 mi Calm Calm - N/A Rain , Thunderstorm Light Thunderstorms and Rain
5:58 AM 64.4 °F - 64.4 °F 100% 30.17 in 4.0 mi Calm Calm - 0.20 in Rain , Thunderstorm Light Thunderstorms and Rain
6:04 AM 64.4 °F - 64.4 °F 100% 30.17 in 2.5 mi West 3.5 mph - N/A Rain Rain
6:34 AM 64.4 °F - 64.4 °F 100% 30.16 in 2.0 mi Calm Calm - N/A Rain Rain
6:44 AM 64.4 °F - 64.4 °F 100% 30.17 in 4.0 mi Calm Calm - N/A Rain , Thunderstorm Rain
6:58 AM 64.2 °F - 64.2 °F 100% 30.20 in 5.0 mi West 6.9 mph - 0.29 in Rain Light Rain
7:08 AM 64.4 °F - 64.4 °F 100% 30.19 in 6.0 mi West 3.5 mph - N/A Rain Light Rain
7:30 AM 60.8 °F - 60.8 °F 100% 30.21 in 5.0 mi NW 10.4 mph - N/A Rain Rain
7:40 AM 60.8 °F - 60.8 °F 100% 30.22 in 3.0 mi NW 11.5 mph - N/A Rain Rain
7:50 AM 59.0 °F - 59.0 °F 100% 30.22 in 4.0 mi NW 11.5 mph - N/A Rain Rain
7:58 AM 59.0 °F - 59.0 °F 100% 30.23 in 4.0 mi NW 12.7 mph - 0.24 in Rain Rain
8:10 AM 57.2 °F - 57.2 °F 100% 30.22 in 4.0 mi NNW 8.1 mph - N/A Rain Rain
8:58 AM 55.9 °F - 55.8 °F 99% 30.26 in 10.0 mi NW 12.7 mph - 0.14 in Rain Light Rain
9:58 AM 54.3 °F - 54.3 °F 100% 30.27 in 10.0 mi NNW 12.7 mph - 0.03 in Rain Light Rain
10:17 AM 53.6 °F - 53.6 °F 100% 30.28 in 10.0 mi NW 8.1 mph - N/A   Overcast
10:42 AM 53.6 °F - 53.6 °F 100% 30.28 in 10.0 mi NW 10.4 mph - N/A   Overcast
10:58 AM 54.3 °F - 54.3 °F 100% 30.28 in 3.0 mi NNW 8.1 mph - N/A Rain Light Rain
11:02 AM 53.6 °F - 53.6 °F 100% 30.27 in 2.0 mi NNW 10.4 mph - N/A Rain Light Rain
11:27 AM 55.4 °F - 55.4 °F 100% 30.27 in 1.5 mi NW 10.4 mph - N/A Rain Light Rain
11:53 AM 55.4 °F - 55.4 °F 100% 30.25 in 4.0 mi North 8.1 mph - N/A   Overcast
11:58 AM 55.6 °F - 55.6 °F 100% 30.25 in 5.0 mi North 10.4 mph - 0.02 in Rain Light Rain
12:11 PM 57.2 °F - 57.2 °F 100% 30.24 in 3.0 mi NNW 12.7 mph - N/A   Overcast
12:26 PM 57.2 °F - 57.2 °F 100% 30.24 in 2.0 mi NNW 9.2 mph - N/A   Overcast
12:36 PM 57.2 °F - 57.2 °F 100% 30.24 in 3.0 mi NW 9.2 mph - N/A   Overcast
12:47 PM 57.2 °F - 57.2 °F 100% 30.25 in 1.5 mi WNW 10.4 mph - N/A   Overcast
12:53 PM 57.2 °F - 57.2 °F 100% 30.25 in 1.2 mi WNW 9.2 mph - N/A Rain Light Rain
12:58 PM 57.6 °F - 57.6 °F 100% 30.26 in 1.2 mi NW 9.2 mph - 0.00 in Rain Light Rain
1:30 PM 57.2 °F - 57.2 °F 100% 30.24 in - NNW 10.4 mph - N/A   Overcast
1:37 PM 57.2 °F - 57.2 °F 100% 30.23 in 1.2 mi NNW 11.5 mph - N/A   Light Drizzle
1:57 PM 57.2 °F - 57.2 °F 100% 30.22 in 1.0 mi NNE 8.1 mph - N/A   Light Drizzle
2:20 PM 57.2 °F - 57.2 °F 100% 30.21 in 1.2 mi NNE 5.8 mph - N/A Rain Light Rain
2:25 PM 57.2 °F - 57.2 °F 100% 30.21 in 1.2 mi North 6.9 mph - N/A Rain Light Rain
2:34 PM 57.2 °F - 57.2 °F 100% 30.21 in 2.0 mi North 6.9 mph - N/A Rain Light Rain
2:58 PM 57.2 °F - 57.2 °F 100% 30.23 in 1.2 mi NNW 13.8 mph - 0.04 in Rain Light Rain
3:07 PM 57.2 °F - 57.2 °F 100% 30.22 in 1.8 mi North 11.5 mph - N/A Rain Light Rain
3:17 PM 57.2 °F - 57.2 °F 100% 30.23 in 2.0 mi North 12.7 mph - N/A Rain Light Rain
3:27 PM 57.2 °F - 57.2 °F 100% 30.22 in 2.5 mi North 12.7 mph - N/A   Light Drizzle
3:29 PM 57.2 °F - 57.2 °F 100% 30.22 in 2.5 mi North 9.2 mph - N/A   Overcast
3:39 PM 55.4 °F - 55.4 °F 100% 30.22 in 3.0 mi North 9.2 mph - N/A   Overcast
3:49 PM 55.4 °F - 55.4 °F 100% 30.23 in 3.0 mi North 10.4 mph - N/A   Overcast
3:58 PM 55.9 °F - 55.9 °F 100% 30.24 in 3.0 mi North 12.7 mph - 0.01 in   Overcast
4:39 PM 55.4 °F - 55.4 °F 100% 30.24 in 3.0 mi North 9.2 mph - N/A   Light Drizzle
4:49 PM 55.4 °F - 55.4 °F 100% 30.23 in 4.0 mi North 9.2 mph - N/A Rain Light Rain
4:58 PM 55.6 °F - 55.6 °F 100% 30.24 in 6.0 mi North 9.2 mph - 0.00 in Rain Light Rain
5:06 PM 55.4 °F - 55.4 °F 100% 30.24 in 6.0 mi North 9.2 mph - N/A   Overcast
5:26 PM 55.4 °F - 55.4 °F 100% 30.24 in 9.0 mi North 8.1 mph - N/A   Overcast
5:36 PM 55.4 °F - 55.4 °F 100% 30.25 in 9.0 mi North 9.2 mph - N/A   Overcast
5:56 PM 53.6 °F - 53.6 °F 100% 30.26 in 8.0 mi North 12.7 mph - N/A   Overcast
5:58 PM 54.1 °F - 54.1 °F 100% 30.27 in 8.0 mi North 12.7 mph - 0.01 in   Overcast
6:28 PM 53.6 °F - 53.6 °F 100% 30.27 in 8.0 mi North 8.1 mph - N/A   Overcast
6:38 PM 53.6 °F - 53.6 °F 100% 30.27 in 10.0 mi NNE 8.1 mph - N/A   Overcast
6:48 PM 53.6 °F - 53.6 °F 100% 30.28 in 9.0 mi North 8.1 mph - N/A   Overcast
6:52 PM 53.6 °F - 53.6 °F 100% 30.28 in 9.0 mi North 5.8 mph - N/A Rain Light Rain
6:58 PM 52.9 °F - 52.9 °F 100% 30.29 in 9.0 mi North 8.1 mph - 0.00 in Rain Light Rain
7:05 PM 53.6 °F - 53.6 °F 100% 30.29 in 9.0 mi North 6.9 mph - N/A   Overcast
7:38 PM 51.8 °F - 51.8 °F 100% 30.30 in 6.0 mi NNE 9.2 mph - N/A Rain Light Rain
7:48 PM 51.8 °F - 51.8 °F 100% 30.29 in 6.0 mi NE 9.2 mph - N/A Rain Light Rain
7:56 PM 51.8 °F - 51.8 °F 100% 30.29 in 6.0 mi NE 8.1 mph - N/A   Mostly Cloudy
7:58 PM 51.8 °F - 51.8 °F 100% 30.30 in 6.0 mi NE 9.2 mph - 0.00 in   Mostly Cloudy
8:08 PM 51.8 °F - 51.8 °F 100% 30.30 in 8.0 mi NNE 8.1 mph - N/A   Mostly Cloudy
8:18 PM 51.8 °F - 51.8 °F 100% 30.30 in 10.0 mi NE 6.9 mph - N/A   Mostly Cloudy
8:28 PM 51.8 °F - 51.8 °F 100% 30.30 in 10.0 mi Variable 6.9 mph - N/A   Overcast
8:48 PM 50.0 °F - 50.0 °F 100% 30.31 in 10.0 mi NNE 5.8 mph - N/A   Overcast
8:58 PM 50.5 °F - 50.4 °F 99% 30.32 in 10.0 mi NE 8.1 mph - N/A   Overcast
9:38 PM 50.0 °F - 50.0 °F 100% 30.32 in 10.0 mi NE 8.1 mph - N/A   Overcast
9:48 PM 50.0 °F - 50.0 °F 100% 30.32 in 9.0 mi NNE 9.2 mph - N/A   Overcast
9:58 PM 49.5 °F - 49.1 °F 99% 30.33 in 8.0 mi NNE 11.5 mph - N/A   Overcast
10:08 PM 50.0 °F - 48.2 °F 94% 30.32 in 8.0 mi NNE 9.2 mph 18.4 mph N/A   Overcast
10:16 PM 48.2 °F - 48.2 °F 100% 30.32 in 7.0 mi NNE 5.8 mph - N/A Rain Light Rain
10:36 PM 48.2 °F - 48.2 °F 100% 30.33 in 10.0 mi NNE 8.1 mph - N/A Rain Light Rain
10:46 PM 48.2 °F - 48.2 °F 100% 30.33 in 9.0 mi North 8.1 mph - N/A Rain Light Rain
10:56 PM 48.2 °F - 48.2 °F 100% 30.33 in 9.0 mi NNE 8.1 mph - N/A   Overcast
10:58 PM 48.2 °F - 48.2 °F 100% 30.34 in 9.0 mi NNE 10.4 mph - 0.01 in   Overcast
11:08 PM 48.2 °F - 48.2 °F 100% 30.33 in 10.0 mi NNE 5.8 mph - N/A   Overcast
11:10 PM 48.2 °F - 48.2 °F 100% 30.33 in 10.0 mi NNE 6.9 mph - N/A Rain Light Rain
11:39 PM 48.2 °F - 48.2 °F 100% 30.33 in 8.0 mi NNE 8.1 mph - N/A Rain Rain
11:49 PM 46.4 °F 42.4 °F 46.4 °F 100% 30.32 in 9.0 mi NNE 8.1 mph - N/A Rain Light Rain
11:58 PM 47.1 °F - 46.9 °F 99% 30.33 in 10.0 mi NNE 6.9 mph - 0.05 in Rain Light Rain